This is the latest recevied weather packets stored in our database for station/object N3WGC-14. If no packets are shown the sender has not sent any weather packets the latest 10 day(s).
| Time | Temp. | Humidity | Pressure | Rain* | Wind** | Luminosity | Snow |
|---|---|---|---|---|---|---|---|
| 1777561608 | 16.67° C | 75% | 1008.8 hPa | 0 mm | - | - | - |
| 1777561307 | 16.67° C | 80% | 1008.9 hPa | 0 mm | - | - | - |
| 1777561007 | 16.11° C | 79% | 1008.8 hPa | 0 mm | - | - | - |
| 1777560707 | 16.67° C | 80% | 1008.8 hPa | 0 mm | - | - | - |
| 1777560407 | 16.11° C | 79% | 1008.9 hPa | 0 mm | - | - | - |
| 1777560107 | 16.11° C | 80% | 1009.1 hPa | 0 mm | - | - | - |
| 1777559807 | 16.11° C | 80% | 1009 hPa | 0 mm | - | - | - |
| 1777559507 | 16.11° C | 81% | 1009.2 hPa | 0 mm | - | - | - |
| 1777559206 | 15.56° C | 83% | 1009.3 hPa | 0 mm | - | - | - |
| 1777558906 | 15.56° C | 85% | 1009.3 hPa | 0 mm | - | - | - |
| 1777558606 | 15° C | 88% | 1009.2 hPa | 0 mm | - | - | - |
| 1777558306 | 15° C | 92% | 1009.1 hPa | 0 mm | - | - | - |
| 1777558006 | 14.44° C | 95% | 1009.3 hPa | 0 mm | - | - | - |
| 1777557706 | 14.44° C | 96% | 1009.1 hPa | 0 mm | - | - | - |
| 1777557406 | 13.89° C | 96% | 1008.9 hPa | 0 mm | - | - | - |
| 1777557105 | 13.89° C | 97% | 1008.8 hPa | 0 mm | - | - | - |
| 1777556805 | 13.89° C | 98% | 1009 hPa | 0 mm | - | - | - |
| 1777556505 | 13.89° C | 98% | 1009 hPa | 0 mm | - | - | - |
| 1777556205 | 13.89° C | 97% | 1009.1 hPa | 0 mm | - | - | - |
| 1777555905 | 13.89° C | 98% | 1009 hPa | 0 mm | - | - | - |
| 1777555605 | 13.89° C | 99% | 1008.9 hPa | 0 mm | - | - | - |
| 1777555305 | 13.33° C | 99% | 1008.8 hPa | 0 mm | - | - | - |
| 1777555004 | 13.33° C | 99% | 1008.7 hPa | 0 mm | - | - | - |
| 1777554704 | 13.33° C | 99% | 1008.6 hPa | 0 mm | - | - | - |
| 1777554404 | 13.33° C | 99% | 1008.5 hPa | 0 mm | - | - | - |
* Rain latest hour (hover to see other rain measurements)
** Current wind speed in m/s (hover to see current wind gust speed)